ONEWEB-0254, 48972

Orbit data source: Space-Track

ONEWEB-0254, 48972 is a payload satellite owned by One Web (NAA) (UK) in LEO that was launched on Thu, 01 Jul 2021 UTC via a SOYUZ-2-1B launch vehicle from the Vostochny Cosmodrome (VOSTO). Payload-class satellites include a variety of spacecraft equipped with specific instruments for various scientific and technological missions. These include communications satellites like Starlink; space stations such as the ISS; scientific satellites like the Hubble; Earth observation satellites from companies like Planet Labs, Umbra, and HawkEye 360; GPS; miniature CubeSats for education and research; and military/defense satellites.

Loading next visibility...
Identifier
48972, 2021-060F
Orbit
LEO
Country
Flag of UKUK
Related business
Manufacturer
One Web
Mission
Operational Commercial Communications
Bus & Motor
ARROW, Unknown motor
Mass
148 kg wet, ~140 kg dry
Launch date (UTC)
2021-07-01 (4 years ago)
Launch vehicle
SOYUZ-2-1B
Launch site
Vostochny Cosmodrome (VOSTO)
Object type
Payload
Rocket body
Debris
Shape & HBR
Trap Box + 2 Pan, 6.7 m
Radar Cross Section
3.464 m², Large (>1 m²)

Expand to show TLE details & history
Last TLE update: 20 hours ago

TLE from 20 hours ago
0 ONEWEB-0254
1 48972U 21060F   25348.78954091 -.00000410  00000-0 -11060-2 0  9991
2 48972  87.9054 265.4854 0001810  63.2352 296.8963 13.16593416215325
Epoch: 2025-12-14T18:56Z
TLE epoch observation values (Epoch: 2025-12-14T18:56:56.334Z)
Latitude
-0.00013°
Longitude
-102.44674°
Altitude
1,200.037 km
Speed
7.254 km/s
True Right ascension
17h 41m 56s
True Declination
0° 00' 00"
Sunlit
Object was in daylight at epoch
Visualization orbit readout
Latitude
Unknown
Longitude
Unknown
Altitude
Unknown
Speed
Unknown
Apparent Right ascension
Unknown
Apparent Declination
Unknown
Sunlit
N/A
Visualization observer readout
Local Sidereal Time
13:18:19
Azimuth
Unknown
Elevation
Unknown
Doppler factor
Unknown
Orbital elements
Apogee altitude
1,196.241 km
Perigee altitude
1,193.5 km
Semi-major axis
7,573.007 km
Eccentricity
0.00018
Inclination
87.9054°
RAAN
265.4854°
Arg. of periapsis
63.2352°
True anomaly
296.8778°
Mean anomaly
296.8963°
Eccentric anomaly
296.88705°
Mean motion
3.29337 °/min
Orbital period
109.31 mins
BSTAR
-0.001106
Loading maneuver chart data...
Computing Atmospheric mass density...
Loading historical data...
Loading historical data...
Loading historical data...
Loading historical data...
Loading historical data...
Loading historical data...
Loading historical data...

Documentation

Showing up to 5 results
|